When you browse on this site, cookies collect data to enhance your experience and personalize the content and advertising you see.
Visit our Privacy Policy to learn more. By continuing to use the site, you agree to this use of cookies and data.
  • In Hungary
  • List of Countries
  • For 7 days
  • Water Temperature
  • Satellite Maps
  • Weather Map
  • News
  • Weather Widgets
  • user-avatar
    Login

    Hourly Weather Blagoevgrad

    Today, 22 January, Tuesday

    Time Temperature Precipitation Wind Pressure Humidity
    00:00 +3°C° 0 mm 1 mps 721 mmHg 87%
    01:00 +4°C° 0 mm 1 mps 720 mmHg 87%
    02:00 +4°C° 0 mm 1 mps 720 mmHg 88%
    03:00 +4°C° 0.1 mm 1 mps 720 mmHg 88%
    04:00 +4°C° 0.1 mm 1 mps 720 mmHg 89%
    05:00 +4°C° 0.1 mm 1 mps 720 mmHg 89%
    06:00 +3°C° 0.1 mm 2 mps 719 mmHg 89%
    07:00 +4°C° 0.1 mm 2 mps 719 mmHg 89%
    08:00 +4°C° 0.1 mm 2 mps 719 mmHg 89%
    09:00 +5°C° 0.1 mm 2 mps 719 mmHg 87%
    10:00 +6°C° 0.1 mm 2 mps 719 mmHg 86%
    11:00 +7°C° 0.1 mm 2 mps 719 mmHg 84%
    12:00 +7°C° 0.1 mm 3 mps 718 mmHg 83%
    13:00 +7°C° 0.1 mm 3 mps 717 mmHg 83%
    14:00 +8°C° 0.1 mm 3 mps 717 mmHg 83%
    15:00 +7°C° 0 mm 3 mps 716 mmHg 85%
    16:00 +5°C° 0 mm 3 mps 716 mmHg 87%
    17:00 +6°C° 0 mm 2 mps 715 mmHg 89%
    18:00 +5°C° 0 mm 2 mps 715 mmHg 89%
    19:00 +5°C° 0 mm 2 mps 714 mmHg 89%
    20:00 +3°C° 0 mm 3 mps 713 mmHg 89%
    21:00 +3°C° 0.1 mm 3 mps 713 mmHg 89%
    22:00 +3°C° 0.1 mm 3 mps 713 mmHg 89%
    23:00 +4°C° 0.1 mm 3 mps 712 mmHg 89%

    Tomorrow, 23 January, Wednesday

    Time Temperature Precipitation Wind Pressure Humidity
    00:00 +4°C° 0.1 mm 3 mps 712 mmHg 90%
    01:00 +4°C° 0.1 mm 3 mps 711 mmHg 91%
    02:00 +5°C° 0.1 mm 2 mps 711 mmHg 92%
    03:00 +5°C° 0 mm 2 mps 711 mmHg 92%
    04:00 +5°C° 0 mm 2 mps 711 mmHg 92%
    05:00 +5°C° 0 mm 2 mps 710 mmHg 92%
    06:00 +4°C° 0 mm 2 mps 710 mmHg 91%
    07:00 +4°C° 0 mm 2 mps 711 mmHg 91%
    08:00 +4°C° 0 mm 2 mps 711 mmHg 90%
    09:00 +5°C° 0 mm 2 mps 711 mmHg 87%
    10:00 +5°C° 0 mm 3 mps 711 mmHg 84%
    11:00 +7°C° 0 mm 3 mps 711 mmHg 80%
    12:00 +8°C° 0 mm 3 mps 711 mmHg 78%
    13:00 +8°C° 0 mm 3 mps 710 mmHg 76%
    14:00 +8°C° 0 mm 3 mps 710 mmHg 74%
    15:00 +8°C° 0 mm 2 mps 710 mmHg 78%
    16:00 +7°C° 0 mm 2 mps 709 mmHg 81%
    17:00 +6°C° 0 mm 2 mps 709 mmHg 85%
    18:00 +6°C° 0.1 mm 2 mps 709 mmHg 86%
    19:00 +5°C° 0.1 mm 2 mps 709 mmHg 87%
    20:00 +5°C° 0.1 mm 2 mps 709 mmHg 87%
    21:00 +6°C° 0.3 mm 1 mps 709 mmHg 87%
    22:00 +6°C° 0.3 mm 1 mps 709 mmHg 87%
    23:00 +6°C° 0.3 mm 1 mps 709 mmHg 86%

    Day after tomorrow, 24 January, Thursday

    Time Temperature Precipitation Wind Pressure Humidity
    00:00 +6°C° 0.8 mm 1 mps 708 mmHg 87%
    01:00 +6°C° 0.8 mm 1 mps 708 mmHg 88%
    02:00 +6°C° 0.8 mm 1 mps 707 mmHg 89%
    03:00 +6°C° 0.4 mm 1 mps 707 mmHg 89%
    04:00 +6°C° 0.4 mm 1 mps 706 mmHg 90%
    05:00 +5°C° 0.4 mm 1 mps 706 mmHg 90%
    06:00 +5°C° 0.1 mm 1 mps 706 mmHg 90%
    07:00 +5°C° 0.1 mm 1 mps 706 mmHg 89%
    08:00 +4°C° 0.1 mm 2 mps 706 mmHg 89%
    09:00 +5°C° 0.1 mm 2 mps 706 mmHg 88%
    10:00 +6°C° 0.1 mm 2 mps 706 mmHg 87%
    11:00 +7°C° 0.1 mm 2 mps 706 mmHg 85%
    12:00 +7°C° 0.3 mm 2 mps 706 mmHg 85%
    13:00 +7°C° 0.3 mm 2 mps 706 mmHg 86%
    14:00 +7°C° 0.3 mm 2 mps 705 mmHg 86%
    15:00 +6°C° 0.3 mm 2 mps 705 mmHg 86%
    16:00 +6°C° 0.3 mm 2 mps 705 mmHg 87%
    17:00 +5°C° 0.3 mm 2 mps 705 mmHg 88%
    18:00 +5°C° 0.4 mm 2 mps 706 mmHg 88%
    19:00 +4°C° 0.4 mm 2 mps 706 mmHg 89%
    20:00 +4°C° 0.4 mm 2 mps 707 mmHg 89%
    21:00 +4°C° 0.4 mm 2 mps 707 mmHg 89%
    22:00 +4°C° 0.4 mm 2 mps 708 mmHg 89%
    23:00 +5°C° 0.4 mm 1 mps 708 mmHg 89%

    25 January, Friday

    Time Temperature Precipitation Wind Pressure Humidity
    00:00 +5°C° 0.2 mm 1 mps 708 mmHg 89%
    01:00 +4°C° 0.2 mm 1 mps 709 mmHg 89%
    02:00 +4°C° 0.2 mm 1 mps 709 mmHg 90%
    03:00 +4°C° 0.2 mm 1 mps 709 mmHg 90%
    04:00 +4°C° 0.2 mm 1 mps 709 mmHg 89%
    05:00 +4°C° 0.2 mm 1 mps 709 mmHg 89%
    06:00 +4°C° 0 mm 1 mps 710 mmHg 89%
    07:00 +4°C° 0 mm 1 mps 710 mmHg 89%
    08:00 +4°C° 0 mm 1 mps 711 mmHg 89%
    09:00 +4°C° 0 mm 2 mps 711 mmHg 87%
    10:00 +5°C° 0 mm 2 mps 711 mmHg 86%
    11:00 +5°C° 0 mm 3 mps 711 mmHg 84%
    12:00 +5°C° 0.6 mm 3 mps 710 mmHg 84%
    13:00 +5°C° 0.6 mm 4 mps 710 mmHg 84%
    14:00 +4°C° 0.6 mm 4 mps 709 mmHg 84%
    15:00 +4°C° 1.4 mm 4 mps 709 mmHg 86%
    16:00 +3°C° 1.4 mm 4 mps 709 mmHg 87%
    17:00 +3°C° 1.4 mm 4 mps 709 mmHg 88%
    18:00 +1°C° 0.7 mm 4 mps 709 mmHg 88%
    19:00 +1°C° 0.7 mm 4 mps 709 mmHg 88%
    20:00 0°C° 0.7 mm 4 mps 709 mmHg 89%
    21:00 0°C° 1 mm 4 mps 709 mmHg 89%
    22:00 +1°C° 1 mm 3 mps 709 mmHg 90%
    23:00 0°C° 1 mm 3 mps 710 mmHg 91%

    26 January, Saturday

    Time Temperature Precipitation Wind Pressure Humidity
    00:00 0°C° 0.6 mm 3 mps 710 mmHg 91%
    01:00 0°C° 0.6 mm 3 mps 710 mmHg 91%
    02:00 0°C° 0.6 mm 3 mps 710 mmHg 91%
    03:00 -1°C° 0 mm 3 mps 710 mmHg 91%
    04:00 -1°C° 0 mm 3 mps 711 mmHg 90%
    05:00 -2°C° 0 mm 3 mps 711 mmHg 90%
    06:00 -2°C° 0 mm 3 mps 711 mmHg 89%
    07:00 -2°C° 0 mm 3 mps 712 mmHg 89%
    08:00 -2°C° 0 mm 3 mps 712 mmHg 88%
    09:00 -1°C° 0.1 mm 3 mps 713 mmHg 87%
    10:00 0°C° 0.1 mm 3 mps 713 mmHg 85%
    11:00 0°C° 0.1 mm 4 mps 714 mmHg 84%
    12:00 0°C° 0.1 mm 4 mps 714 mmHg 84%
    13:00 0°C° 0.1 mm 4 mps 714 mmHg 84%
    14:00 +1°C° 0.1 mm 4 mps 713 mmHg 84%
    15:00 0°C° 0.1 mm 4 mps 713 mmHg 85%
    16:00 +1°C° 0.1 mm 3 mps 714 mmHg 86%
    17:00 +1°C° 0.1 mm 3 mps 714 mmHg 86%
    18:00 0°C° 0.1 mm 3 mps 714 mmHg 87%
    19:00 0°C° 0.1 mm 3 mps 714 mmHg 87%
    20:00 -1°C° 0.1 mm 2 mps 715 mmHg 88%
    21:00 -1°C° 0.1 mm 2 mps 715 mmHg 88%
    22:00 -1°C° 0.1 mm 2 mps 715 mmHg 88%
    23:00 -1°C° 0.1 mm 2 mps 715 mmHg 88%

    27 January, Sunday

    Time Temperature Precipitation Wind Pressure Humidity
    00:00 -1°C° 0 mm 2 mps 715 mmHg 88%
    01:00 0°C° 0 mm 1 mps 715 mmHg 87%
    02:00 0°C° 0 mm 1 mps 715 mmHg 87%
    03:00 0°C° 0 mm 1 mps 715 mmHg 86%
    04:00 0°C° 0 mm 1 mps 714 mmHg 84%
    05:00 0°C° 0 mm 1 mps 714 mmHg 83%
    06:00 0°C° 0 mm 1 mps 714 mmHg 83%
    07:00 0°C° 0 mm 1 mps 714 mmHg 82%
    08:00 0°C° 0 mm 1 mps 714 mmHg 82%
    09:00 +2°C° 0 mm 1 mps 715 mmHg 83%
    10:00 +4°C° 0 mm 1 mps 715 mmHg 84%
    11:00 +5°C° 0 mm 2 mps 715 mmHg 85%
    12:00 +5°C° 0 mm 2 mps 714 mmHg 86%
    13:00 +6°C° 0 mm 2 mps 714 mmHg 86%
    14:00 +5°C° 0 mm 3 mps 713 mmHg 87%
    15:00 +5°C° 0 mm 2 mps 713 mmHg 88%
    16:00 +5°C° 0 mm 2 mps 713 mmHg 89%
    17:00 +4°C° 0 mm 2 mps 713 mmHg 90%
    18:00 +3°C° 0 mm 2 mps 713 mmHg 91%
    19:00 +2°C° 0 mm 2 mps 714 mmHg 91%
    20:00 +2°C° 0 mm 2 mps 714 mmHg 92%
    21:00 +1°C° 0 mm 2 mps 714 mmHg 92%
    22:00 +1°C° 0 mm 2 mps 714 mmHg 92%
    23:00 +1°C° 0 mm 2 mps 714 mmHg 92%
    Show more